Madigan Hospital, WA

3:06 AM PDT on August 25, 2016 (GMT -0700)
Gray Army Air Field

Weather History for KGRF - November, 2011

Change the Weather History Date:

Thursday, November 24, 2011

  Actual Average Record
Temperature  
Mean Temperature 39 °F -  
Max Temperature 45 °F 47 °F 57 °F (2004)
Min Temperature 33 °F 35 °F 10 °F (2010)
Degree Days  
Heating Degree Days 26    
Moisture  
Dew Point 37 °F    
Average Humidity 89    
Maximum Humidity 100    
Minimum Humidity 76    
Precipitation  
Precipitation 0.24 in - - ()
Sea Level Pressure  
Sea Level Pressure 29.74 in    
Wind  
Wind Speed 9 mph (SSE)    
Max Wind Speed 21 mph    
Max Gust Speed 31 mph    
Visibility 10 miles    
Events Rain    
Averages and records for this station are not official NWS values.
T = Trace of Precipitation, MM = Missing Value Source: NWS Daily Summary

Daily Weather History Graph

Daily Weather History Graph

Search for Another Location

Airport or City:

Trip Planner

Search our weather history database for the weather conditions in past years. The results will help you decide how hot, cold, wet, or windy it might be!

Date:

Astronomy

Nov. 24, 2011 Rise Set
Actual Time 7:26 AM PST 4:27 PM PST
Civil Twilight 6:52 AM PST 5:01 PM PST
Nautical Twilight 6:14 AM PST 5:38 PM PST
Astronomical Twilight 5:38 AM PST 6:15 PM PST
Moon 6:52 AM PST (11/24) 4:00 PM PST (11/24)
Length of Visible Light 10h 08m
Length of Day
9h 00m
Waning Crescent, 0% of the Moon is Illuminated
Nov 24
Waning Crescent
Nov 24
New
Dec 2
First Quarter
Dec 10
Full
Dec 17
Last Quarter

Hourly Weather History & Observations

Time (PST) Temp. Windchill Dew Point Humidity Pressure Visibility Wind Dir Wind Speed Gust Speed Precip Events Conditions
12:28 AM 33.8 °F 25.8 °F 33.8 °F 100% 29.86 in 10.0 mi SE 10.4 mph - N/A   Overcast
12:49 AM 35.6 °F 27.5 °F 35.6 °F 100% 29.86 in 10.0 mi SE 11.5 mph - N/A   Overcast
12:55 AM 36.0 °F 28.0 °F 35.4 °F 98% 29.86 in 10.0 mi SE 11.5 mph - 0.00 in   Mostly Cloudy
1:12 AM 35.6 °F 27.5 °F 35.6 °F 100% 29.86 in 10.0 mi SSE 11.5 mph - N/A   Mostly Cloudy
1:48 AM 39.2 °F 34.2 °F 37.4 °F 93% 29.85 in 10.0 mi South 6.9 mph - N/A   Mostly Cloudy
1:55 AM 37.8 °F 31.8 °F 36.9 °F 97% 29.85 in 10.0 mi SSE 8.1 mph - 0.01 in   Mostly Cloudy
2:55 AM 34.7 °F 29.6 °F 34.0 °F 97% 29.84 in 10.0 mi SE 5.8 mph - 0.00 in   Mostly Cloudy
3:09 AM 33.8 °F 29.6 °F 33.8 °F 100% 29.84 in 10.0 mi SE 4.6 mph - N/A   Scattered Clouds
3:27 AM 33.8 °F 29.6 °F 33.8 °F 100% 29.83 in 10.0 mi SSE 4.6 mph - N/A   Mostly Cloudy
3:40 AM 35.6 °F 31.7 °F 33.8 °F 93% 29.83 in 10.0 mi SSE 4.6 mph - N/A   Mostly Cloudy
3:55 AM 35.1 °F 30.1 °F 34.3 °F 97% 29.83 in 10.0 mi SSE 5.8 mph - 0.00 in   Overcast
3:56 AM 35.6 °F 30.7 °F 33.8 °F 93% 29.83 in 10.0 mi SSE 5.8 mph - N/A   Overcast
4:37 AM 35.6 °F 30.7 °F 35.6 °F 100% 29.82 in 10.0 mi SSE 5.8 mph - N/A   Overcast
4:55 AM 35.6 °F 31.7 °F 34.5 °F 96% 29.81 in 10.0 mi SE 4.6 mph - 0.00 in   Mostly Cloudy
5:10 AM 35.6 °F 32.8 °F 33.8 °F 93% 29.81 in 10.0 mi SE 3.5 mph - N/A   Partly Cloudy
5:55 AM 34.0 °F 29.8 °F 33.1 °F 96% 29.79 in 10.0 mi ESE 4.6 mph - 0.00 in   Overcast
6:03 AM 35.6 °F 32.8 °F 33.8 °F 93% 29.78 in 10.0 mi ESE 3.5 mph - N/A   Overcast
6:11 AM 35.6 °F 31.7 °F 33.8 °F 93% 29.78 in 10.0 mi SSE 4.6 mph - N/A   Overcast
6:30 AM 35.6 °F 32.8 °F 33.8 °F 93% 29.78 in 10.0 mi SSE 3.5 mph - N/A   Overcast
6:41 AM 35.6 °F 31.7 °F 33.8 °F 93% 29.77 in 10.0 mi South 4.6 mph - N/A   Overcast
6:55 AM 35.6 °F 31.7 °F 34.2 °F 94% 29.77 in 10.0 mi SE 4.6 mph - 0.00 in   Mostly Cloudy
7:22 AM 35.6 °F 32.8 °F 33.8 °F 93% 29.77 in 10.0 mi South 3.5 mph - N/A   Overcast
7:31 AM 35.6 °F 31.7 °F 33.8 °F 93% 29.76 in 10.0 mi SSE 4.6 mph - N/A   Overcast
7:55 AM 35.6 °F 31.7 °F 34.3 °F 95% 29.77 in 10.0 mi SSE 4.6 mph - 0.00 in   Overcast
8:55 AM 38.3 °F 33.9 °F 36.0 °F 91% 29.76 in 10.0 mi SE 5.8 mph - 0.00 in   Mostly Cloudy
8:59 AM 39.2 °F 35.0 °F 35.6 °F 87% 29.76 in 10.0 mi SE 5.8 mph - N/A   Overcast
9:08 AM 39.2 °F 35.0 °F 37.4 °F 93% 29.75 in 10.0 mi SE 5.8 mph - N/A   Overcast
9:34 AM 37.4 °F 33.8 °F 35.6 °F 93% 29.74 in 10.0 mi SE 4.6 mph - N/A   Mostly Cloudy
9:40 AM 37.4 °F 33.8 °F 35.6 °F 93% 29.73 in 10.0 mi ESE 4.6 mph - N/A   Scattered Clouds
9:55 AM 39.9 °F 36.7 °F 35.8 °F 85% 29.73 in 10.0 mi ESE 4.6 mph - 0.00 in   Partly Cloudy
10:15 AM 41.0 °F 34.3 °F 35.6 °F 81% 29.69 in 9.0 mi ESE 11.5 mph - N/A   Mostly Cloudy
10:55 AM 42.4 °F 36.5 °F 37.0 °F 81% 29.68 in 10.0 mi SE 10.4 mph - 0.02 in   Overcast
10:56 AM 42.8 °F 37.5 °F 37.4 °F 81% 29.67 in 10.0 mi SE 9.2 mph - N/A   Overcast
11:07 AM 42.8 °F 37.0 °F 37.4 °F 81% 29.66 in 10.0 mi SE 10.4 mph - N/A   Mostly Cloudy
11:08 AM 42.8 °F 36.6 °F 37.4 °F 81% 29.65 in 10.0 mi SE 11.5 mph - N/A   Mostly Cloudy
11:55 AM 43.3 °F 38.6 °F 37.0 °F 78% 29.62 in 10.0 mi ESE 8.1 mph - 0.01 in   Mostly Cloudy
11:58 AM 42.8 °F 37.5 °F 37.4 °F 81% 29.62 in 10.0 mi ESE 9.2 mph - N/A   Mostly Cloudy
12:34 PM 44.6 °F 37.4 °F 37.4 °F 76% 29.59 in 10.0 mi SSE 16.1 mph 24.2 mph N/A   Overcast
12:40 PM 44.6 °F 36.9 °F 37.4 °F 76% 29.58 in 10.0 mi SE 18.4 mph 29.9 mph N/A   Overcast
12:55 PM 44.1 °F 37.4 °F 37.4 °F 77% 29.57 in 10.0 mi SE 13.8 mph 21.9 mph 0.00 in   Overcast
12:58 PM 44.6 °F 36.6 °F 37.4 °F 76% 29.57 in 10.0 mi SSE 19.6 mph 23.0 mph N/A   Overcast
1:11 PM 44.6 °F 36.4 °F 37.4 °F 76% 29.57 in 10.0 mi SE 20.7 mph 26.5 mph N/A   Overcast
1:18 PM 44.6 °F 37.4 °F 37.4 °F 76% 29.57 in 10.0 mi SSE 16.1 mph 26.5 mph N/A   Overcast
1:44 PM 44.6 °F 38.8 °F 37.4 °F 76% 29.59 in 10.0 mi SSE 11.5 mph - N/A   Mostly Cloudy
1:55 PM 45.0 °F 40.1 °F 38.3 °F 77% 29.59 in 10.0 mi South 9.2 mph - 0.01 in   Overcast
2:09 PM 44.6 °F 38.1 °F 37.4 °F 76% 29.59 in 10.0 mi South 13.8 mph 25.3 mph N/A   Overcast
2:55 PM 44.8 °F 37.1 °F 39.0 °F 80% 29.57 in 10.0 mi SSE 18.4 mph 29.9 mph 0.02 in   Overcast
3:21 PM 44.6 °F 36.6 °F 37.4 °F 76% 29.57 in 10.0 mi SSE 19.6 mph 31.1 mph N/A Rain Light Rain
3:55 PM 44.4 °F 38.6 °F 39.0 °F 81% 29.62 in 8.0 mi SSW 11.5 mph 31.1 mph 0.02 in Rain Light Rain
4:30 PM 42.8 °F 36.2 °F 39.2 °F 87% 29.63 in 10.0 mi South 12.7 mph 23.0 mph N/A Rain Light Rain
4:33 PM 42.8 °F 35.8 °F 39.2 °F 87% 29.63 in 10.0 mi SSE 13.8 mph 23.0 mph N/A   Overcast
4:47 PM 42.8 °F 36.2 °F 39.2 °F 87% 29.64 in 10.0 mi South 12.7 mph - N/A Rain Light Rain
4:55 PM 42.6 °F 34.9 °F 39.2 °F 88% 29.65 in 10.0 mi South 16.1 mph 19.6 mph 0.06 in Rain Light Rain
5:03 PM 42.8 °F 35.4 °F 39.2 °F 87% 29.65 in 9.0 mi South 15.0 mph - N/A Rain Light Rain
5:19 PM 42.8 °F 35.4 °F 39.2 °F 87% 29.65 in 10.0 mi SSE 15.0 mph - N/A Rain Light Rain
5:29 PM 42.8 °F 34.8 °F 39.2 °F 87% 29.65 in 10.0 mi SSE 17.3 mph 25.3 mph N/A Rain Light Rain
5:35 PM 42.8 °F 36.6 °F 39.2 °F 87% 29.66 in 10.0 mi South 11.5 mph - N/A   Mostly Cloudy
5:48 PM 42.8 °F 36.2 °F 39.2 °F 87% 29.68 in 10.0 mi South 12.7 mph - N/A Rain Light Rain
5:55 PM 42.3 °F 35.9 °F 39.6 °F 90% 29.68 in 10.0 mi SSE 11.5 mph - 0.02 in Rain Light Rain
5:56 PM 42.8 °F 37.0 °F 39.2 °F 87% 29.68 in 10.0 mi SSE 10.4 mph - N/A Rain Light Rain
6:16 PM 42.8 °F 37.5 °F 41.0 °F 93% 29.69 in 10.0 mi South 9.2 mph - N/A Rain Light Rain
6:23 PM 42.8 °F 36.6 °F 39.2 °F 87% 29.70 in 10.0 mi SSE 11.5 mph - N/A Rain Light Rain
6:55 PM 42.8 °F 38.0 °F 40.6 °F 92% 29.71 in 10.0 mi South 8.1 mph - 0.02 in Rain Light Rain
6:56 PM 42.8 °F 37.5 °F 41.0 °F 93% 29.71 in 10.0 mi SSE 9.2 mph - N/A   Overcast
7:04 PM 42.8 °F 38.6 °F 41.0 °F 93% 29.72 in 9.0 mi South 6.9 mph - N/A   Overcast
7:05 PM 42.8 °F 38.0 °F 41.0 °F 93% 29.71 in 8.0 mi South 8.1 mph - N/A Rain Light Rain
7:20 PM 42.8 °F 38.0 °F 41.0 °F 93% 29.72 in 10.0 mi South 8.1 mph - N/A   Overcast
7:32 PM 42.8 °F 37.5 °F 41.0 °F 93% 29.72 in 10.0 mi South 9.2 mph - N/A   Mostly Cloudy
7:55 PM 42.6 °F 37.2 °F 40.6 °F 93% 29.73 in 10.0 mi South 9.2 mph - 0.01 in Rain Light Rain
8:06 PM 42.8 °F 37.5 °F 41.0 °F 93% 29.74 in 10.0 mi South 9.2 mph - N/A   Mostly Cloudy
8:41 PM 42.8 °F 39.3 °F 41.0 °F 93% 29.78 in 10.0 mi South 5.8 mph - N/A Rain Light Rain
8:55 PM 43.0 °F 36.0 °F 40.5 °F 91% 29.78 in 7.0 mi South 13.8 mph 21.9 mph 0.02 in Rain Light Rain
9:55 PM 41.7 °F 34.8 °F 38.3 °F 88% 29.83 in 10.0 mi SW 12.7 mph - 0.02 in Rain Light Rain
10:00 PM 41.0 °F 35.2 °F 37.4 °F 87% 29.84 in 10.0 mi SW 9.2 mph - N/A   Mostly Cloudy
10:10 PM 41.0 °F 35.8 °F 37.4 °F 87% 29.85 in 10.0 mi South 8.1 mph 17.3 mph N/A   Mostly Cloudy
10:31 PM 41.0 °F 35.8 °F 39.2 °F 93% 29.87 in 10.0 mi South 8.1 mph - N/A Rain Light Rain
10:55 PM 41.5 °F 35.0 °F 36.9 °F 83% 29.88 in 10.0 mi SSW 11.5 mph 19.6 mph 0.00 in Rain Light Rain
11:00 PM 41.0 °F 34.7 °F 37.4 °F 87% 29.89 in 10.0 mi South 10.4 mph - N/A   Scattered Clouds
11:16 PM 41.0 °F 35.8 °F 37.4 °F 87% 29.90 in 10.0 mi South 8.1 mph - N/A Rain Light Rain
11:27 PM 41.0 °F 34.7 °F 37.4 °F 87% 29.92 in 10.0 mi SSW 10.4 mph 20.7 mph N/A   Scattered Clouds
11:39 PM 41.0 °F 34.3 °F 37.4 °F 87% 29.93 in 10.0 mi SSW 11.5 mph - N/A Rain Light Rain
11:55 PM 40.8 °F 33.7 °F 36.0 °F 83% 29.94 in 10.0 mi SSW 12.7 mph - 0.00 in   Scattered Clouds